CZ-6A DEB, 61380

Orbit data source: Space-Track

CZ-6A DEB, 61380 is space debris in LEO originally from a launch on Tue, 06 Aug 2024 UTC launched from the Taiyaun Space Center, China (TSC). Debris objects in space refer to the collection of defunct objects orbiting the Earth. Examples of debris include non-operational satellites, rocket bodies, and fragments generated from explosions, collisions, or faulty payload assembly.

Loading next visibility...
Identifier
61380, 2024-140WV
Orbit
LEO
Country
Flag of CNCN / PRC
Related business
Manufacturer
SAST
Mission
Spacecraft
Bus & Motor
Unknown
Mass
Unknown
Launch date (UTC)
2024-08-06 (2 years ago)
Launch vehicle
Unknown
Launch site
Taiyaun Space Center, China (TSC)
Object type
Payload
Rocket body
Debris
Shape & HBR
Unknown shape, 0.1 m
Radar Cross Section
Medium (>0.1 m² and <1 m²)

Expand to show TLE details & history
Last TLE update: 17 hours ago

TLE from 17 hours ago
0 CZ-6A DEB
1 61380U 24140WV  26171.27545525  .00001144  00000-0  28704-3 0  9995
2 61380  89.1226 280.9681 0071551 278.9135  80.3976 14.49207395 94680
Epoch: 2026-06-20T06:36Z
TLE epoch observation values (Epoch: 2026-06-20T06:36:39.333Z)
Latitude
-0.00004°
Longitude
-86.6882°
Altitude
723.205 km
Speed
7.498 km/s
True Right ascension
18h 43m 52s
True Declination
0° 00' 00"
Sunlit
Object was in full shadow at epoch
Visualization orbit readout
Latitude
Unknown
Longitude
Unknown
Altitude
Unknown
Speed
Unknown
Apparent Right ascension
Unknown
Apparent Declination
Unknown
Sunlit
N/A
Visualization observer readout
Local Sidereal Time
10:17:09
Azimuth
Unknown
Elevation
Unknown
Doppler factor
Unknown
Orbital elements
Apogee altitude
775.972 km
Perigee altitude
674.322 km
Semi-major axis
7,103.284 km
Eccentricity
0.00716
Inclination
89.1226°
RAAN
280.9681°
Arg. of periapsis
278.9135°
True anomaly
81.20721°
Mean anomaly
80.3976°
Eccentric anomaly
80.80229°
Mean motion
3.62539 °/min
Orbital period
99.3 mins
BSTAR
0.00028704
Loading maneuver chart data...
Computing Atmospheric mass density...
Loading historical data...
Loading historical data...
Loading historical data...
Loading historical data...
Loading historical data...
Loading historical data...
Loading historical data...

Documentation

Showing up to 5 results
|